Le nostre stazioni meteo in Italia

Pubblicità
Il mio iltempo24.it
Bournemouth Airport, Gran Bretagna (3862): Temperatura & dewpoint: 17.08.2017 09:00:00 - 23.08.2017 09:00:00 (BST)Bournemouth Airport, Gran Bretagna (3862): Temperatura -20cm & Temperatura -100cm: 17.08.2017 09:00:00 - 23.08.2017 09:00:00 (BST)Bournemouth Airport, Gran Bretagna (3862): velocità del vento & gusts: 17.08.2017 09:00:00 - 23.08.2017 09:00:00 (BST)Bournemouth Airport, Gran Bretagna (3862): direzione del vento: 17.08.2017 09:00:00 - 23.08.2017 09:00:00 (BST)Bournemouth Airport, Gran Bretagna (3862): reduced air pressure: 17.08.2017 09:00:00 - 23.08.2017 09:00:00 (BST)Bournemouth Airport, Gran Bretagna (3862): visibility: 17.08.2017 09:00:00 - 23.08.2017 09:00:00 (BST)Bournemouth Airport, Gran Bretagna (3862): ore di luce: 17.08.2017 09:00:00 - 23.08.2017 09:00:00 (BST)Bournemouth Airport, Gran Bretagna (3862): precipitazioni: 17.08.2017 09:00:00 - 23.08.2017 09:00:00 (BST)
Data & Tempo tt [°C] td [°C] tt -20cm [°C] tt -100cm [°C] ff [km/h] ff [kn] fx [km/h] fx [kn] dd ppp [hPa] vv [km] sd [min] rr [mm]
23.08.2017 09:00:00 - - - - - - - - - - - - -
23.08.2017 08:00:00 18,2 17,2 - - 11 6 - - ONO 1012,7 8 0 0,0
23.08.2017 07:00:00 17,7 17,1 - - 11 6 - - ONO 1012,1 7 0 0,0
23.08.2017 06:00:00 17,9 17,1 - - 9 5 - - ONO 1011,7 8 0 0,0
23.08.2017 05:00:00 18,4 17,5 - - 9 5 - - SSO 1011,6 11 0 0,0
23.08.2017 04:00:00 17,1 16,8 - - 8 4 - - SSE 1011,7 9 0 0,0
23.08.2017 03:00:00 16,1 15,2 - - 5 3 - - ESE 1012,2 6 0 0,0
23.08.2017 02:00:00 18,1 16,7 - - 9 5 - - ESE 1012,5 12 0 0,0
23.08.2017 01:00:00 18,2 16,5 - - 11 6 - - E 1013,1 14 - 0,0
23.08.2017 00:00:00 18,1 16,3 - - 9 5 - - E 1013,2 10 0 0,0
22.08.2017 23:00:00 18,2 16,3 - - 11 6 - - ESE 1013,8 10 0 0,0
22.08.2017 22:00:00 18,0 15,9 - - 13 7 - - ESE 1014,2 10 0 0,0
22.08.2017 21:00:00 17,9 15,6 - - 13 7 - - ESE 1014,4 10 0 0,0
22.08.2017 20:00:00 18,9 15,3 - - 16 9 - - ESE 1014,7 10 24 0,0
22.08.2017 19:00:00 19,9 15,7 - - 15 8 - - E 1015,1 10 30 0,0
22.08.2017 18:00:00 20,4 16,2 - - 18 10 - - ESE 1016,0 10 42 0,2
22.08.2017 17:00:00 20,3 17,4 - - 18 10 - - SSE 1016,4 10 24 0,2
22.08.2017 16:00:00 21,9 15,9 - - 18 10 - - ESE 1016,9 10 36 0,0
22.08.2017 15:00:00 22,3 17,5 - - 18 10 - - ESE 1017,0 10 18 0,0
22.08.2017 14:00:00 21,0 17,1 - - 15 8 - - E 1018,0 10 6 0,0
22.08.2017 13:00:00 20,6 17,2 - - 21 11 - - ESE 1017,6 30 6 0,0
22.08.2017 12:00:00 21,3 17,2 - - 18 10 - - SE 1018,3 10 18 0,0
22.08.2017 11:00:00 19,9 17,2 - - 15 8 - - SE 1019,3 10 0 0,0
22.08.2017 10:00:00 19,1 17,6 18,0 16,5 15 8 - - ESE 1019,4 8 0 0,0
22.08.2017 09:00:00 17,3 17,2 - - 8 4 - - ESE 1019,7 2,5 0 0,0
22.08.2017 08:00:00 16,7 16,6 - - 9 5 - - E 1019,7 0,8 0 0,0
22.08.2017 07:00:00 16,1 15,9 - - 9 5 - - E 1019,8 0,6 0 0,0
22.08.2017 06:00:00 16,3 16,2 - - 8 4 - - ESE 1019,8 6 0 0,2
22.08.2017 05:00:00 16,1 16,0 - - 11 6 - - SSE 1019,8 9 0 0,0
22.08.2017 04:00:00 15,9 15,8 - - 11 6 - - SE 1020,0 1,0 0 0,0
22.08.2017 03:00:00 15,9 15,7 - - 5 3 - - SSE 1020,3 0,3 0 0,0
22.08.2017 02:00:00 15,8 15,6 - - 5 3 - - ESE 1020,4 0,1 0 0,0
22.08.2017 01:00:00 14,2 13,9 - - 4 2 - - E 1020,4 1,0 - 0,0
22.08.2017 00:00:00 14,6 14,1 - - 4 2 - - SE 1020,6 2,5 0 0,0
21.08.2017 23:00:00 15,2 14,1 - - 2 1 - - SE 1020,8 9 0 0,0
21.08.2017 22:00:00 17,2 15,4 - - 0 0 - - N 1020,8 10 0 0,0
21.08.2017 21:00:00 19,0 16,6 - - 0 0 - - N 1020,7 10 0 0,0
21.08.2017 20:00:00 19,3 16,0 - - 8 4 - - - 1020,3 10 36 0,0
21.08.2017 19:00:00 21,2 17,4 - - 4 2 - - S 1020,2 10 36 0,0
21.08.2017 18:00:00 20,8 17,5 - - 11 6 - - S 1020,3 10 0 0,0
21.08.2017 17:00:00 21,7 17,9 - - 9 5 - - S 1020,3 10 0 0,0
21.08.2017 16:00:00 21,2 17,9 - - 9 5 - - S 1020,5 10 0 0,0
21.08.2017 15:00:00 22,8 18,0 - - 5 3 - - O 1020,7 10 0 0,0
21.08.2017 14:00:00 22,8 17,3 - - 9 5 - - ONO 1020,7 10 6 0,0
21.08.2017 13:00:00 21,8 17,3 - - 13 7 - - NNO 1021,1 10 0 0,0
21.08.2017 12:00:00 21,4 17,9 - - 18 10 - - NO 1021,4 10 0 0,0
21.08.2017 11:00:00 21,0 18,8 - - 13 7 - - ONO 1021,2 10 0 0,0
21.08.2017 10:00:00 19,9 18,1 17,4 16,7 15 8 - - ONO 1021,1 10 6 0,0
21.08.2017 09:00:00 18,8 18,0 - - 9 5 - - O 1021,0 19 0 0,0
21.08.2017 08:00:00 17,9 17,7 - - 8 4 - - OSO 1020,9 10 0 0,0
21.08.2017 07:00:00 17,3 17,2 - - 5 3 - - OSO 1020,7 8 0 0,0
21.08.2017 06:00:00 17,2 17,0 - - 5 3 - - OSO 1020,0 8 0 0,0
21.08.2017 05:00:00 17,1 17,0 - - 9 5 - - O 1020,3 4,2 0 0,0
21.08.2017 04:00:00 17,2 17,0 - - 8 4 - - OSO 1020,1 7 0 0,0
21.08.2017 03:00:00 17,1 16,9 - - 11 6 - - O 1020,3 5 0 0,2
21.08.2017 02:00:00 16,9 16,8 - - 8 4 - - OSO 1020,3 3,0 0 0,0
21.08.2017 01:00:00 16,7 16,4 - - 8 4 - - SO 1020,5 1,7 - 0,0
21.08.2017 00:00:00 16,3 16,0 - - 9 5 - - SSO 1020,9 10 0 0,0
20.08.2017 23:00:00 16,0 15,7 - - 11 6 - - S 1021,3 5 0 0,6
20.08.2017 22:00:00 15,0 14,5 - - 15 8 - - S 1022,1 6 0 1,2
20.08.2017 21:00:00 14,9 13,6 - - 21 11 - - SSO 1022,2 8 0 0,0
20.08.2017 20:00:00 14,5 13,6 - - 13 7 - - S 1022,6 4,5 0 0,6
20.08.2017 19:00:00 15,1 13,2 - - 15 8 - - SSO 1022,9 10 0 0,0
20.08.2017 18:00:00 15,1 13,3 - - 13 7 - - SSO 1023,6 10 0 1,4
20.08.2017 17:00:00 15,7 13,0 - - 11 6 - - SO 1024,0 6 0 0,0
20.08.2017 16:00:00 17,1 11,7 - - 11 6 - - SO 1024,1 10 0 0,2
20.08.2017 15:00:00 15,7 12,7 - - 21 11 - - OSO 1024,6 10 0 0,0
20.08.2017 14:00:00 18,3 10,4 - - 18 10 - - SO 1024,6 10 6 0,0
20.08.2017 13:00:00 18,9 12,3 - - 18 10 - - SO 1024,3 10 0 0,0
20.08.2017 12:00:00 17,1 12,8 - - 15 8 - - SSO 1024,7 10 6 0,0
20.08.2017 11:00:00 18,0 11,4 - - 13 7 - - SO 1024,6 10 48 0,0
20.08.2017 10:00:00 17,1 12,6 17,4 16,7 9 5 - - OSO 1024,6 10 60 0,0
20.08.2017 09:00:00 14,4 12,1 - - 2 1 - - ONO 1024,7 10 60 0,0
20.08.2017 08:00:00 9,9 9,5 - - 2 1 - - NNO 1024,6 10 18 0,0
20.08.2017 07:00:00 8,4 8,1 - - 2 1 - - ENE 1023,7 10 0 0,0
20.08.2017 06:00:00 7,3 6,9 - - 2 1 - - NNE 1023,4 19 0 0,0
20.08.2017 05:00:00 7,8 7,3 - - 5 3 - - ESE 1023,2 17 0 0,0
20.08.2017 04:00:00 8,5 7,5 - - 2 1 - - O 1023,4 18 0 0,0
20.08.2017 03:00:00 9,1 7,8 - - 11 6 - - O 1023,1 18 0 0,0
20.08.2017 02:00:00 10,2 9,0 - - 9 5 - - O 1023,0 19 0 0,0
20.08.2017 01:00:00 9,8 8,4 - - 11 6 - - O 1023,1 17 - 0,0
20.08.2017 00:00:00 10,7 8,4 - - 9 5 - - O 1023,0 10 0 0,0
19.08.2017 23:00:00 11,7 8,9 - - 8 4 - - O 1022,9 10 0 0,0
19.08.2017 22:00:00 12,3 8,5 - - 13 7 - - O 1022,4 10 0 0,0
19.08.2017 21:00:00 13,2 8,3 - - 13 7 - - O 1022,1 10 0 0,0
19.08.2017 20:00:00 16,1 7,8 - - 16 9 - - O 1021,4 10 48 0,0
19.08.2017 19:00:00 17,6 6,4 - - 28 15 - - ONO 1020,9 10 60 0,0
19.08.2017 18:00:00 18,1 8,3 - - 26 14 - - ONO 1020,6 10 36 0,0
19.08.2017 17:00:00 19,2 8,3 - - 24 13 - - ONO 1020,2 10 24 0,0
19.08.2017 16:00:00 18,8 8,5 - - 28 15 - - ONO 1020,0 10 24 0,0
19.08.2017 15:00:00 19,0 9,6 - - 26 14 - - O 1019,6 10 36 0,0
19.08.2017 14:00:00 18,0 7,9 - - 24 13 - - ONO 1019,6 10 24 0,0
19.08.2017 13:00:00 20,4 11,1 - - 29 16 - - O 1019,4 10 42 0,0
19.08.2017 12:00:00 18,7 10,0 - - 28 15 - - O 1019,2 10 42 0,0
19.08.2017 11:00:00 18,2 10,8 - - 24 13 - - ONO 1019,1 10 30 0,0
19.08.2017 10:00:00 16,7 11,3 18,0 16,7 18 10 - - O 1018,9 10 18 0,0
19.08.2017 09:00:00 16,0 11,6 - - 18 10 - - ONO 1018,6 10 60 0,0
19.08.2017 08:00:00 14,2 11,6 - - 11 6 - - O 1018,3 10 60 0,0
19.08.2017 07:00:00 12,3 11,0 - - 13 7 - - O 1017,5 10 18 0,0
19.08.2017 06:00:00 12,7 10,9 - - 15 8 - - ONO 1016,9 17 0 0,0
19.08.2017 05:00:00 13,0 11,3 - - 18 10 - - O 1016,3 18 0 0,0
19.08.2017 04:00:00 13,0 11,1 - - 16 9 - - O 1015,7 20 0 0,0
19.08.2017 03:00:00 13,4 11,0 - - 15 8 - - O 1015,3 19 0 0,0
19.08.2017 02:00:00 14,1 11,5 - - 16 9 - - O 1014,8 18 0 0,0
19.08.2017 01:00:00 14,8 11,6 - - 26 14 - - O 1014,5 18 - 0,0
19.08.2017 00:00:00 14,8 11,2 - - 26 14 - - O 1014,3 19 0 0,0
18.08.2017 23:00:00 15,1 10,6 - - 24 13 - - OSO 1014,2 20 0 0,0
18.08.2017 22:00:00 14,6 9,8 - - 21 11 - - OSO 1014,1 10 0 0,0
18.08.2017 21:00:00 14,9 9,7 - - 22 12 - - OSO 1013,6 10 6 0,0
18.08.2017 20:00:00 16,1 9,1 - - 26 14 46 25 O 1013,5 10 48 0,0
18.08.2017 19:00:00 17,3 9,3 - - 31 17 48 26 O 1013,4 10 54 0,0
18.08.2017 18:00:00 17,2 9,1 - - 29 16 - - O 1013,0 30 48 0,0
18.08.2017 17:00:00 18,0 10,1 - - 29 16 54 29 O 1012,8 10 36 0,0
18.08.2017 16:00:00 16,7 11,1 - - 21 11 - - O 1012,7 10 48 0,0
18.08.2017 15:00:00 15,2 12,7 - - 15 8 67 36 O 1012,7 30 12 2,0
18.08.2017 14:00:00 19,3 12,5 - - 26 14 - - OSO 1012,2 10 18 0,0
18.08.2017 13:00:00 17,3 12,9 - - 24 13 - - OSO 1012,3 10 6 0,0
18.08.2017 12:00:00 18,2 11,6 - - 24 13 - - OSO 1012,1 10 42 0,0
18.08.2017 11:00:00 18,7 11,8 - - 18 10 - - OSO 1012,6 10 48 0,0
18.08.2017 10:00:00 17,0 11,7 18,4 16,7 22 12 - - O 1012,4 10 54 0,0
18.08.2017 09:00:00 16,4 12,8 - - 21 11 - - O 1011,9 10 60 0,0
18.08.2017 08:00:00 15,6 12,6 - - 22 12 - - O 1011,3 10 48 0,0
18.08.2017 07:00:00 15,0 13,8 - - 13 7 - - O 1010,9 10 0 0,0
18.08.2017 06:00:00 15,3 14,2 - - 16 9 - - OSO 1010,6 14 0 0,0
18.08.2017 05:00:00 15,4 14,3 - - 15 8 - - OSO 1010,7 16 0 0,0
18.08.2017 04:00:00 15,7 14,2 - - 21 11 46 25 O 1010,7 24 0 2,0
18.08.2017 03:00:00 16,9 15,2 - - 16 9 - - SO 1010,8 16 0 0,0
18.08.2017 02:00:00 17,0 15,1 - - 16 9 - - SO 1011,4 16 0 0,0
18.08.2017 01:00:00 16,7 14,9 - - 16 9 - - SO 1012,0 15 - 0,0
18.08.2017 00:00:00 16,7 14,5 - - 15 8 - - OSO 1012,2 16 0 0,0
17.08.2017 23:00:00 16,9 14,8 - - 16 9 - - OSO 1012,5 10 0 0,0
17.08.2017 22:00:00 17,3 15,0 - - 15 8 - - OSO 1012,6 10 0 0,0
17.08.2017 21:00:00 17,3 15,3 - - 21 11 - - OSO 1012,7 10 0 0,0
17.08.2017 20:00:00 17,6 15,3 - - 22 12 - - SO 1012,4 10 0 0,0
17.08.2017 19:00:00 18,4 15,3 - - 26 14 - - OSO 1012,7 10 0 0,0
17.08.2017 18:00:00 18,7 15,9 - - 26 14 - - SO 1012,9 10 12 0,0
17.08.2017 17:00:00 20,0 16,8 - - 22 12 - - OSO 1013,0 10 18 0,0
17.08.2017 16:00:00 20,1 14,6 - - 29 16 - - O 1013,0 10 42 0,0
17.08.2017 15:00:00 21,2 14,8 - - 28 15 - - OSO 1012,9 10 60 0,0
17.08.2017 14:00:00 21,1 15,3 - - 29 16 - - OSO 1012,8 10 60 0,0
17.08.2017 13:00:00 21,6 16,7 - - 26 14 - - OSO 1012,4 10 36 0,0
17.08.2017 12:00:00 18,4 17,1 - - 21 11 - - OSO 1012,4 10 6 0,2
17.08.2017 11:00:00 19,7 17,4 - - 18 10 - - - 1012,2 10 12 0,0
17.08.2017 10:00:00 18,7 17,1 18,2 16,7 18 10 - - OSO 1011,8 10 0 0,0
17.08.2017 09:00:00 17,9 17,0 - - 16 9 - - OSO 1011,4 10 0 0,0

tt = Temperatura
td = dewpoint
tt -20cm = Temperatura -20cm
tt -100cm = Temperatura -100cm
ff = velocità del vento
fx = gusts
dd = direzione del vento
ppp = reduced air pressure
vv = visibility
sd = ore di luce
rr = precipitazioni

Stazioni seguenti

WeatherPro
AMSI
MeteoEarth